DECAYED
Showing default

SUCHAI-2, 52192 (Decayed)

Orbit data source: Space-Track

SUCHAI-2, 52192 was a payload satellite owned by SPEL/UCH (CL) in LEO that was launched on Fri, 01 Apr 2022 UTC via an FALCON 9 launch vehicle from the Air Force Eastern Test Range (AFETR). Payloads include a variety of satellites, spacecraft, and rockets equipped with specific instruments for various scientific and technological missions. These include communications satellites like Starlink; space stations such as the ISS; scientific satellites like the Hubble; Earth observation satellites from companies like Planet Labs, Umbra, and HawkEye 360; GPS; miniature CubeSats for education and research; and military/defense satellites.

Not visible in the next 10 days
SUCHAI-2 details
Identifier
52192, 2022-033AM
Orbit
Decayed
Last TLE update3 months ago
Origin
Flag of CLSPEL/UCH (CL / CHLE)
ManufacturerSPEL/UCH
MissionDecayed Amateur Technology
Bus & MotorCUBESAT 3U, Unknown motor
Mass~4 kg wet, ~4 kg dry
Launch date (UTC)
2022-04-01 (3 years ago)
Launch vehicle
FALCON 9
Launch site
Air Force Eastern Test Range (AFETR)
Object type
Payload
Rocket body
Debris
Shape & HBRBox, 0.3 m
Radar Cross Section0.035 m², Small (<0.1 m²)

Expand to show TLE details & history

TLE from 3 months ago
0 SUCHAI-2
1 52192U 22033AM  24280.41582610  .16355900  25290-5  20957-3 0  9990
2 52192  97.2596  13.1096 0010468 260.4666  99.5456 16.49110273141185
Epoch: 2024-10-06T09:58Z
Definitive object data (Epoch: 2024-10-06T09:58:47.375Z)
Latitude0.00002°
Longitude-152.1459°
Altitude146.086 km
Speed7.818 km/s
True Right ascension00h 52m 26s
True Declination0° 00' 00"
Sunlit
Object was in full shadow at TLE epoch
Visualization observer readout
Observer readout values are unavailable because the object's trajectory could not be propagated. This is usually caused when the trajectory data is faulty or the object's orbit has decayed.
Visualization observer readout
Observer readout values are unavailable because the object's trajectory could not be propagated. This is usually caused when the trajectory data is faulty or the object's orbit has decayed.
Orbital elements
Apogee altitude145.291 km
Perigee altitude131.647 km
Semi-major axis6,516.606 km
Eccentricity0.0010468
Inclination97.2596°
RAAN13.1096°
Arg. of periapsis260.4666°
True anomaly99.66387°
Mean anomaly99.5456°
Eccentric anomaly99.60474°
Mean motion4.12583 °/min
BSTAR0.00020957
Orbital period87.26 mins
Loading maneuver chart data...

SUCHAI-2 Visibility forecast

Observer location: undefined°, undefined

This satellite is decayed
Span
Click to sort rows by Start time (UTC) header in descending order
Start Az.
Max El. time (UTC)
Max El. Az.
Max El.
End time (UTC)
End Az.
|